Home   Weather   Zittau   Past weeks

Flag for Germany Past Weather in Zittau, Saxony, Germany — Yesterday and Last 2 Weeks

Now
47 °F

Partly sunny.


Feels Like: 47 °F
Forecast: 30 / 56 °F
Wind: 2 mph from West

Location: Liberec

Current Time: Apr 29, 2017 at 11:49:47 am

Latest Report: Apr 29, 2017 at 11:00 am


Visibility: 13 mi

Pressure: 30.03 "Hg

Humidity: 49%

Dew Point: 29 °F

Location of ZittauLocation

Past Weather in Zittau — Graph

°F

Zittau Temperature Yesterday

Maximum temperature yesterday: 42 °F (at 6:00 pm)
Minimum temperature yesterday: 37 °F (at 7:00 am)
Average temperature yesterday: 39 °F

High & Low Weather Summary for the Past Weeks

 TemperatureHumidityPressure
High58 °F (Apr 25, 2:00 pm)98% (Apr 18, 4:00 am)30.53 "Hg (Apr 18, 4:00 am)
Low25 °F (Apr 21, 6:00 am)31% (Apr 20, 4:00 pm)29.65 "Hg (Apr 25, 3:00 pm)
Average40 °F69%30.06 "Hg
* Reported Apr 14 10:00 am — Apr 29 10:00 am, Zittau, Weather by CustomWeather, © 2017

Note: Actual official high and low records may vary slightly from our data, if they occured in-between our weather recording intervals... More about our weather records

Advertising

Zittau Weather History for the Previous 24 Hours

Scroll right to see more
 ConditionsComfort  
Time TempWeatherWind HumidityBarometerVisibility
10:00 am
Sat, Apr 29
45 °FPartly sunny.1 mph58%30.03 "Hg11 mi
9:00 am43 °FPartly sunny.2 mph67%30.03 "Hg8 mi
8:00 am40 °FScattered clouds.1 mph83%30.04 "Hg6 mi
7:00 am36 °FFog.1 mph95%30.03 "Hg3 mi
6:00 am36 °FFog.1 mph96%30.02 "Hg2 mi
5:00 am34 °FFog.1 mph97%30.02 "Hg2 mi
4:00 am35 °FFog.1 mph96%30.01 "Hg1 mi
3:00 am35 °FFog.1 mph93%30.00 "Hg2 mi
2:00 am36 °FChilly.1 mph90%29.99 "Hg3 mi
1:00 am39 °FFog.1 mph86%29.98 "Hg4 mi
12:00 am40 °FQuite cool.3 mph85%29.96 "Hg6 mi
11:00 pm
Fri, Apr 28
39 °FFog.2 mph88%29.95 "Hg3 mi
10:00 pm39 °FOvercast.1 mph88%29.94 "Hg5 mi
9:00 pm40 °FLight rain. Overcast.1 mph88%29.93 "Hg5 mi
8:00 pm41 °FLight rain. Overcast.1 mph85%29.90 "Hg5 mi
7:00 pm41 °FRain showers. Cloudy.1 mph77%29.89 "Hg8 mi
6:00 pm42 °FDrizzle. Cloudy.1 mph75%29.89 "Hg9 mi
5:00 pm41 °FLight rain. Overcast.2 mph77%29.88 "Hg8 mi
4:00 pm41 °FOvercast.2 mph75%29.88 "Hg7 mi
3:00 pm40 °FOvercast.2 mph79%29.89 "Hg7 mi
2:00 pm39 °FOvercast.2 mph82%29.89 "Hg6 mi
1:00 pm38 °FOvercast.2 mph83%29.90 "Hg7 mi
12:00 pm39 °FOvercast.2 mph76%29.88 "Hg12 mi
11:00 am39 °FOvercast.2 mph76%29.90 "Hg12 mi
Weather by CustomWeather, © 2017

See weather overviewHow to use our weather pages